User: anonymous   Login
Location: Castillon
(43.0896°N, 0.2156°E)
Time: 21:01:58
(UTC+00:00)
Language:

Cosmos 1980 Rocket - Orbit

View from above orbital plane
View from above orbital plane
View from above satellite
View from above satellite

Ground track
Ground track

The orbit data is extracted from the following two-line orbital elements,

1 19650U 88102B   21271.41660283  .00000093  00000-0  71605-4 0  9998
2 19650  71.0005 325.8730 0015813 315.5283  44.4570 14.15807861697118
Epoch (UTC): 28 September 2021 09:59:54
Eccentricity: 0.0015813
inclination: 71.0005°
perigee height: 828 km
apogee height: 851 km
right ascension of ascending node: 325.8730°
argument of perigee: 315.5283°
revolutions per day: 14.15807861
mean anomaly at epoch: 44.4570°
orbit number at epoch: 69711

The dashed part of the orbit path shows where the satellite is in the earth's shadow,  

DLR